Location: Antoign�
(47.0844°N, 0.1131°W)
Time: 09:29:21
(UTC+00:00)

Meteor 1-19 Rocket - Pass Details

Date: 03 March 2021
Orbit: 807 x 928 km, 81.2° (Epoch: 10 April)

Event Time Altitude Azimuth Distance (km) Brightness Sun altitude
Rises 18:40:40 0° 348° (NNW) 3,569 7.6 -9.6°
Reaches altitude 10° 18:43:11 10° 350° (N) 2,611 6.9 -10.0°
Maximum altitude 18:49:10 84° 78° (ENE) 906 4.3 -11.0°
Drops below altitude 10° 18:54:56 10° 168° (SSE) 2,519 6.5 -12.0°
Sets 18:57:19 0° 169° (S) 3,434 7.2 -12.4°
